SCP
0 0 0 0 0 0 0 0 0 0 0 0 0 0 0 0 0 0 0 0 0 0 0 0 0 0 0 0 0 0 0 0 0 0 0 0 0 0 0 0 0 0 0 0
0 0 0 0 0 0 0 0 0 0 0 0 0 0 0 0 0 0 0 0 0 0 0 0 0 0 0 0 0 0 0 0 0 0 0 0 0 0 0 0 0 0 0 0
0 0 0 0 0 0 0 0 0 0 0 0 0 0 0 0 0 0 0 0 0 0 0 0 0 0 0 0 0 0 0 0 0 0 0 0 0 0 0 0 0 0 0 0
0 0 0 0 0 0 0 0 0 0 0 0 0 0 0 0 0 0 0 0 0 0 0 0 0 0 0 0 0 0 0 0 0 0 0 0 0 0 0 0 0 0 0 0
0 0 0 0 0 0 0 0 0 0 0 0 0 0 0 0 0 0 0 0 0 0 0 0 0 0 0 0 0 0 0 0 0 0 0 0 0 0 0 0 0 0 0 0
0 0 0 0 0 0 0 0 0 0 0 0 0 0 0 0 0 0 0 0 0 0 0 0 0 0 0 0 0 0 0 0 0 0 0 0 0 0 0 0 0 0 0 0
0 0 0 0 0 0 0 0 0 0 0 0 0 0 0 0 0 0 0 0 0 0 0 0 0 0 0 0 0 0 0 0 0 0 0 0 0 0 0 0 0 0 0 0
0 0 0 0 0 0 0 0 0 0 0 0 0 0 0 0 0 0 0 0 0 0 0 -0 -0 -0 0 0 0 0 0 0 0 0 0 0 0 0 0 0 0 0 0 0
0 0 0 0 0 0 0 0 0 0 0 0 0 0 0 0 0 0 0 0 -0 -0 0 0 -0 -0 -0 0 0 0 0 0 0 0 0 0 0 0 0 0 0 0 0 0
0 0 0 0 0 0 0 0 0 0 0 0 0 0 0 0 0 0 0 0 0 0 0 0 0 0 0 0 0 0 0 0 0 0 0 0 0 0 0 0 0 0 0 0
0 0 0 0 0 0 0 0 0 0 0 0 0 0 0 0 0 0 0 0 0 0 0 0 0 0 0 0 0 0 0 0 0 0 0 0 0 0 0 0 0 0 0 0
0 0 0 0 0 0 0 0 0 0 0 0 0 0 0 0 0 0 0 0 0 0 0 0 0 0 0 0 0 0 0 0 0 0 0 0 0 0 0 0 0 0 0 0
0 0 0 0 0 0 0 0 0 0 0 0 0 0 0 0 0 0 0 0 0 0 0 0 0 0 0 0 0 0 0 0 0 0 0 0 0 0 0 0 0 0 0 0
0 0 0 0 0 0 0 0 0 0 0 0 0 0 0 0 0 0 0 0 0 0 0 0 0 0 0 0 0 0 0 0 0 0 0 0 0 0 0 0 0 0 0 0
0 0 0 0 0 0 0 0 0 0 0 0 0 0 0 0 0 0 0 0 0 0 0 0 0 0 0 0 0 0 0 0 0 0 0 0 0 0 0 0 0 0 0 0
0 0 0 0 0 0 0 0 0 0 0 0 0 0 0 0 0 0 0 0 0 0 0 0 0 0 0 0 0 0 0 0 0 0 0 0 0 0 0 0 0 0 0 0
0 0 0 0 0 0 0 0 0 0 0 0 0 0 0 0 0 0 0 0 0 0 0 0 0 0 0 0 0 0 0 0 0 0 0 0 0 0 0 0 0 0 0 0
0 0 0 0 0 0 0 0 0 0 0 0 0 0 0 0 0 0 0 0 0 0 0 0 0 0 0 0 0 0 0 0 0 0 0 0 0 0 0 0 0 0 0 0
0 0 0 0 0 0 0 0 0 0 0 0 0 0 0 0 0 0 0 0 0 0 0 0 0 0 0 0 0 0 0 0 0 0 0 0 0 0 0 0 0 0 0 0
0 0 0 0 0 0 0 0 0 0 0 0 0 0 0 0 0 0 0 0 0 0 0 0 0 0 0 0 0 0 0 0 0 0 0 0 0 0 0 0 0 0 0 0
0 0 0 0 0 0 0 0 0 0 0 0 0 0 0 0 0 0 0 0 0 0 0 0 0 0 0 0 0 0 0 0 0 0 0 0 0 0 0 0 0 0 0 0
0 0 0 0 0 0 0 0 0 0 0 0 0 0 0 0 0 0 0 0 0 0 0 0 0 0 0 0 0 0 0 0 0 0 0 0 0 0 0 0 0 0 0 0
0 0 0 0 0 0 0 0 0 0 0 0 0 0 0 0 0 0 0 0 0 0 0 0 0 0 0 0 0 0 0 0 0 0 0 0 0 0 0 0 0 0 0 0
0 0 0 0 0 0 0 0 0 0 0 0 0 0 0 0 0 0 0 0 0 0 0 0 0 0 0 0 0 0 0 0 0 0 0 0 0 0 0 0 0 0 0 0
0 0 0 0 0 0 0 0 0 0 0 0 0 0 0 0 0 0 0 0 0 0 0 0 0 0 0 0 0 0 0 0 0 0 0 0 0 0 0 0 0 0 0 0
0 0 0 0 0 0 0 0 0 0 0 0 0 0 0 0 0 0 0 0 0 0 0 0 0 0 0 0 0 0 0 0 0 0 0 0 0 0 0 0 0 0 0 0
0 0 0 0 0 0 0 0 0 0 0 0 0 0 0 0 0 0 0 0 0 0 0 0 0 0 0 0 0 0 0 0 0 0 0 0 0 0 0 0 0 0 0 0
Wind_Speed_500mb
25 3 3 5 23 34 38 47 25 43 36 48 33 29 41 66 66 57 56 64 72 74 74 75 78 77 78 77 75 71 69 66 62 57 55 57 58 57 54 51 48 46 44 41
24 19 21 25 13 29 35 42 37 51 41 49 67 53 35 57 53 52 68 80 81 82 82 86 87 89 92 90 88 85 82 78 71 66 65 66 66 64 60 57 54 50 47 45
34 12 11 16 47 37 22 31 28 30 47 44 41 40 48 40 40 62 75 75 79 79 83 85 86 85 90 89 93 93 92 87 79 74 72 72 70 67 63 61 56 53 51 49
12 8 14 13 5 39 50 50 43 34 30 43 47 69 68 53 60 69 69 78 84 86 89 93 92 88 85 87 91 92 95 95 88 83 80 77 73 70 67 65 62 58 56 53
12 12 8 15 16 13 18 34 36 40 45 57 69 52 67 85 58 61 62 61 64 70 76 80 80 77 76 77 80 87 92 94 96 93 89 83 79 76 72 67 63 60 56 53
2 4 12 22 5 26 13 10 28 18 29 31 43 14 29 69 63 44 32 35 42 51 58 61 64 65 64 68 73 81 84 88 94 95 89 82 77 74 70 67 63 61 59 56
24 14 11 21 20 33 12 20 6 12 23 27 8 21 47 52 50 42 42 51 64 66 64 65 67 66 63 63 70 67 72 79 84 87 84 79 76 74 70 68 65 63 60 57
9 10 20 14 10 14 4 9 16 5 8 13 44 53 58 66 70 72 67 68 61 61 66 66 64 62 63 66 65 65 65 68 74 78 81 79 72 72 71 71 68 66 64 59
16 13 2 7 4 7 7 15 23 41 55 50 52 58 59 61 59 62 68 71 70 63 59 58 62 61 63 68 67 65 62 61 67 68 74 72 71 72 74 73 73 73 67 66
5 9 20 45 37 33 33 44 52 51 52 52 51 48 52 57 60 60 62 63 69 68 63 61 60 63 62 62 64 60 60 59 61 63 71 69 67 68 73 76 77 75 73 70
14 30 26 62 56 38 37 46 50 54 52 46 47 53 53 60 60 64 67 69 69 69 63 57 55 55 56 57 54 54 54 55 59 65 68 65 63 66 68 69 70 72 71 66
21 10 26 31 40 52 60 64 61 57 56 50 50 57 58 62 60 63 70 68 67 65 64 59 55 54 51 50 49 49 53 55 60 64 64 63 61 61 62 57 57 53 50 48
46 52 48 56 61 61 57 54 46 45 45 50 51 56 61 66 65 67 66 66 63 61 57 55 52 49 47 46 47 50 54 57 59 61 62 59 60 61 56 44 46 42 42 41
32 38 50 57 41 41 42 48 49 49 48 51 55 54 57 59 59 58 59 56 53 50 48 47 46 43 42 43 45 46 48 48 51 48 54 55 56 54 54 58 54 45 43 44
36 38 39 40 40 38 38 40 44 42 41 39 38 41 42 43 42 41 41 41 39 38 36 35 35 36 36 35 36 35 37 40 42 43 49 52 54 54 56 56 52 48 43 42
25 29 34 40 40 35 31 28 26 28 30 31 32 31 32 33 34 33 33 34 34 34 31 29 28 27 25 26 28 29 31 33 34 36 41 44 46 47 48 47 43 40 37 33
41 35 23 23 25 25 24 24 29 31 31 31 30 29 28 29 30 30 28 26 26 27 28 26 21 17 15 17 20 22 24 26 28 32 35 39 40 39 38 37 38 42 44 41
20 26 26 26 21 18 20 25 28 29 28 27 27 27 27 26 28 28 29 29 26 24 22 18 14 11 10 12 15 17 20 23 27 30 34 36 37 35 35 36 40 41 39 36
18 19 20 20 20 21 22 23 25 25 25 25 24 25 25 25 24 26 27 26 26 24 21 18 15 11 9 9 10 13 17 20 24 26 27 26 27 29 32 35 36 34 36 41
17 19 20 20 21 21 21 24 25 24 25 25 26 25 25 25 26 26 26 24 22 21 18 17 13 12 13 14 15 17 19 20 20 22 23 24 26 28 29 30 32 36 37 38
21 22 21 22 22 25 25 27 29 27 26 27 27 27 27 27 28 29 29 27 21 21 20 18 15 15 15 17 16 18 19 19 20 22 22 24 25 27 29 31 34 36 37 39
21 22 24 26 25 27 28 27 28 28 29 29 30 31 31 28 29 29 29 29 25 23 22 20 18 18 20 21 20 22 23 23 25 26 26 27 27 29 30 33 34 35 38 40
26 24 26 27 26 27 27 26 27 28 28 29 31 33 36 33 32 37 30 27 25 27 24 22 23 22 23 23 24 25 26 26 26 25 26 28 29 31 34 36 37 39 40 40
29 27 26 27 26 25 25 28 28 28 27 27 28 31 34 36 34 32 32 29 27 24 23 26 26 26 26 27 27 28 28 29 29 30 31 33 33 33 34 35 37 38 39 40
29 28 27 25 24 22 27 28 27 27 29 29 29 31 33 35 36 33 32 31 29 28 27 28 29 31 30 29 30 30 30 31 32 34 34 33 33 34 35 36 37 38 41 42
27 25 24 24 22 22 24 27 27 25 29 30 29 31 35 36 36 35 33 32 33 32 32 32 33 33 33 31 32 33 32 33 33 34 35 35 36 38 38 39 40 42 44 44
25 23 23 22 19 24 25 25 25 25 31 36 37 34 34 35 36 35 34 34 34 35 37 38 39 40 39 38 36 37 38 38 37 38 39 40 41 41 41 42 44 45 45 45
Wind_Direction_500mb
239 261 309 208 217 215 217 232 230 252 247 264 262 247 257 266 272 277 276 273 274 277 278 281 281 278 272 269 266 260 256 255 254 250 246 245 243 241 241 241 240 238 236 234
257 251 222 244 252 235 226 233 240 247 258 266 268 277 260 264 270 269 269 272 277 281 280 278 275 278 279 273 267 260 256 255 251 247 245 243 243 242 240 238 236 232 231 231
255 194 186 238 229 225 235 237 227 238 247 266 276 270 267 271 268 269 274 278 280 280 282 281 280 281 280 279 272 261 256 254 251 247 244 241 240 238 237 235 232 231 230 229
246 140 244 258 213 216 225 235 235 248 262 255 262 276 288 290 279 277 279 281 283 283 285 286 288 286 283 278 275 268 258 254 250 247 244 241 239 237 235 233 232 230 228 226
228 203 329 295 252 190 179 249 246 240 248 263 274 291 290 286 291 292 292 290 289 286 285 287 289 291 288 281 275 268 261 256 251 247 243 239 237 235 232 231 229 227 226 225
134 262 205 248 186 136 113 268 244 212 241 251 267 278 279 298 303 315 304 299 302 302 300 299 298 293 287 284 276 269 262 256 249 243 240 239 238 235 233 230 228 225 221 219
240 244 263 262 158 150 133 259 64 172 240 264 218 260 290 305 315 316 308 312 314 309 304 305 306 305 299 288 279 276 266 258 252 245 242 241 238 235 232 229 224 221 219 218
220 226 256 140 116 170 242 337 326 317 223 299 309 303 303 308 308 307 306 311 310 306 305 305 302 298 295 290 284 274 267 261 254 244 238 236 236 236 230 226 223 221 216 217
188 215 316 217 232 208 288 289 298 305 306 307 301 298 302 300 301 301 302 305 307 307 304 306 307 300 292 288 283 277 269 264 252 242 237 237 235 233 231 227 224 219 219 213
27 228 237 266 272 272 285 293 302 303 306 307 299 300 299 299 300 300 302 304 305 303 301 299 298 297 294 285 280 275 266 256 245 236 234 232 233 232 232 228 224 222 215 217
262 275 294 274 277 291 299 302 303 306 301 295 298 300 297 296 298 299 298 299 298 299 299 297 296 293 289 285 277 268 259 249 239 232 231 231 229 230 229 229 230 231 228 224
249 213 252 281 299 304 306 306 305 302 296 295 299 297 296 296 298 298 298 297 296 298 297 295 291 289 286 279 268 259 250 241 235 233 228 226 226 225 228 230 231 227 233 231
249 271 286 297 301 301 301 301 299 300 300 300 298 297 297 297 298 297 297 298 297 296 296 294 292 288 284 276 264 255 247 240 237 235 233 228 222 220 217 209 216 217 211 214
276 285 287 287 293 296 298 299 298 298 299 297 296 295 295 297 299 301 302 301 299 298 296 293 290 285 275 266 261 258 254 249 242 237 237 229 223 217 211 208 200 194 206 212
275 276 281 287 289 294 299 304 306 310 309 309 307 308 308 309 309 311 311 310 308 305 302 298 293 286 278 266 256 250 247 241 234 226 223 219 213 206 201 198 197 196 196 198
284 287 288 288 291 293 296 301 307 315 315 316 317 318 317 317 317 317 319 319 316 312 310 305 299 292 278 266 253 244 238 234 230 219 213 210 206 202 200 202 204 208 212 211
280 288 286 288 295 294 297 303 311 313 315 315 315 315 315 318 319 320 322 320 316 315 314 311 306 296 280 267 256 244 235 227 216 208 205 204 203 201 202 205 209 214 221 228
271 277 280 286 291 291 296 305 309 312 314 312 312 313 312 315 318 321 321 321 321 322 323 318 310 297 272 245 231 225 221 215 209 206 203 200 201 203 206 211 220 223 225 229
282 283 288 287 284 289 300 306 309 308 306 307 309 308 308 307 306 306 308 312 315 317 317 315 309 300 285 265 245 227 217 214 213 212 210 209 213 218 221 222 225 229 232 232
281 292 295 288 289 294 298 302 308 310 307 307 304 301 300 298 297 298 298 302 301 297 293 289 285 271 253 246 241 230 222 219 222 226 227 226 225 226 230 234 236 238 239 242
276 284 287 284 284 288 292 299 304 307 305 305 305 303 303 303 301 299 300 299 293 282 276 275 268 254 248 245 243 243 240 238 237 238 237 239 241 242 242 242 242 244 246 247
273 282 283 278 279 284 287 293 297 300 302 305 306 306 303 305 298 293 292 292 287 278 270 265 260 256 250 247 245 245 245 244 243 243 243 243 243 245 247 248 249 250 252 253
268 274 277 278 279 286 288 292 296 303 305 303 305 307 306 304 304 302 302 286 280 270 263 259 253 253 254 254 252 249 249 249 252 253 252 252 251 250 251 253 253 253 255 256
262 268 271 274 279 281 286 287 297 301 303 306 309 307 306 305 301 298 295 286 278 269 260 253 255 257 259 259 256 254 252 252 253 252 251 253 255 257 258 258 259 259 261 263
264 265 269 273 276 284 282 287 296 305 305 310 311 306 304 300 298 298 292 288 282 270 262 259 261 263 262 260 259 257 255 255 255 254 256 259 262 265 266 268 269 269 269 269
265 271 272 277 284 286 287 289 293 301 302 298 299 300 298 297 296 293 288 282 277 274 270 268 268 269 270 266 265 264 264 264 265 266 268 268 269 271 273 273 273 273 272 270
268 269 269 272 280 277 284 291 297 299 294 295 298 302 297 294 293 293 290 283 277 272 269 269 270 271 272 273 272 272 272 271 270 270 269 268 270 272 273 273 273 272 273 273
Wind_Speed_850mb
25 3 3 5 23 34 38 47 25 43 36 48 33 29 41 66 66 57 56 64 72 74 74 75 78 77 78 77 75 71 69 66 62 57 55 57 58 57 54 51 48 46 44 41
24 19 21 25 13 29 35 42 37 51 41 49 67 53 35 57 53 52 68 80 81 82 82 86 87 89 92 90 88 85 82 78 71 66 65 66 66 64 60 57 54 50 47 45
34 12 11 16 47 37 22 31 28 30 47 44 41 40 48 40 40 62 75 75 79 79 83 85 86 85 90 89 93 93 92 87 79 74 72 72 70 67 63 61 56 53 51 49
12 8 14 13 5 39 50 50 43 34 30 43 47 69 68 53 60 69 69 78 84 86 89 93 92 88 85 87 91 92 95 95 88 83 80 77 73 70 67 65 62 58 56 53
12 12 8 15 16 13 18 34 36 40 45 57 69 52 67 85 58 61 62 61 64 70 76 80 80 77 76 77 80 87 92 94 96 93 89 83 79 76 72 67 63 60 56 53
2 4 12 22 5 26 13 10 28 18 29 31 43 14 29 69 63 44 32 35 42 51 58 61 64 65 64 68 73 81 84 88 94 95 89 82 77 74 70 67 63 61 59 56
24 14 11 21 20 33 12 20 6 12 23 27 8 21 47 52 50 42 42 51 64 66 64 65 67 66 63 63 70 67 72 79 84 87 84 79 76 74 70 68 65 63 60 57
9 10 20 14 10 14 4 9 16 5 8 13 44 53 58 66 70 72 67 68 61 61 66 66 64 62 63 66 65 65 65 68 74 78 81 79 72 72 71 71 68 66 64 59
16 13 2 7 4 7 7 15 23 41 55 50 52 58 59 61 59 62 68 71 70 63 59 58 62 61 63 68 67 65 62 61 67 68 74 72 71 72 74 73 73 73 67 66
5 9 20 45 37 33 33 44 52 51 52 52 51 48 52 57 60 60 62 63 69 68 63 61 60 63 62 62 64 60 60 59 61 63 71 69 67 68 73 76 77 75 73 70
14 30 26 62 56 38 37 46 50 54 52 46 47 53 53 60 60 64 67 69 69 69 63 57 55 55 56 57 54 54 54 55 59 65 68 65 63 66 68 69 70 72 71 66
21 10 26 31 40 52 60 64 61 57 56 50 50 57 58 62 60 63 70 68 67 65 64 59 55 54 51 50 49 49 53 55 60 64 64 63 61 61 62 57 57 53 50 48
46 52 48 56 61 61 57 54 46 45 45 50 51 56 61 66 65 67 66 66 63 61 57 55 52 49 47 46 47 50 54 57 59 61 62 59 60 61 56 44 46 42 42 41
32 38 50 57 41 41 42 48 49 49 48 51 55 54 57 59 59 58 59 56 53 50 48 47 46 43 42 43 45 46 48 48 51 48 54 55 56 54 54 58 54 45 43 44
36 38 39 40 40 38 38 40 44 42 41 39 38 41 42 43 42 41 41 41 39 38 36 35 35 36 36 35 36 35 37 40 42 43 49 52 54 54 56 56 52 48 43 42
25 29 34 40 40 35 31 28 26 28 30 31 32 31 32 33 34 33 33 34 34 34 31 29 28 27 25 26 28 29 31 33 34 36 41 44 46 47 48 47 43 40 37 33
41 35 23 23 25 25 24 24 29 31 31 31 30 29 28 29 30 30 28 26 26 27 28 26 21 17 15 17 20 22 24 26 28 32 35 39 40 39 38 37 38 42 44 41
20 26 26 26 21 18 20 25 28 29 28 27 27 27 27 26 28 28 29 29 26 24 22 18 14 11 10 12 15 17 20 23 27 30 34 36 37 35 35 36 40 41 39 36
18 19 20 20 20 21 22 23 25 25 25 25 24 25 25 25 24 26 27 26 26 24 21 18 15 11 9 9 10 13 17 20 24 26 27 26 27 29 32 35 36 34 36 41
17 19 20 20 21 21 21 24 25 24 25 25 26 25 25 25 26 26 26 24 22 21 18 17 13 12 13 14 15 17 19 20 20 22 23 24 26 28 29 30 32 36 37 38
21 22 21 22 22 25 25 27 29 27 26 27 27 27 27 27 28 29 29 27 21 21 20 18 15 15 15 17 16 18 19 19 20 22 22 24 25 27 29 31 34 36 37 39
21 22 24 26 25 27 28 27 28 28 29 29 30 31 31 28 29 29 29 29 25 23 22 20 18 18 20 21 20 22 23 23 25 26 26 27 27 29 30 33 34 35 38 40
26 24 26 27 26 27 27 26 27 28 28 29 31 33 36 33 32 37 30 27 25 27 24 22 23 22 23 23 24 25 26 26 26 25 26 28 29 31 34 36 37 39 40 40
29 27 26 27 26 25 25 28 28 28 27 27 28 31 34 36 34 32 32 29 27 24 23 26 26 26 26 27 27 28 28 29 29 30 31 33 33 33 34 35 37 38 39 40
29 28 27 25 24 22 27 28 27 27 29 29 29 31 33 35 36 33 32 31 29 28 27 28 29 31 30 29 30 30 30 31 32 34 34 33 33 34 35 36 37 38 41 42
27 25 24 24 22 22 24 27 27 25 29 30 29 31 35 36 36 35 33 32 33 32 32 32 33 33 33 31 32 33 32 33 33 34 35 35 36 38 38 39 40 42 44 44
25 23 23 22 19 24 25 25 25 25 31 36 37 34 34 35 36 35 34 34 34 35 37 38 39 40 39 38 36 37 38 38 37 38 39 40 41 41 41 42 44 45 45 45
Wind_Direction_850mb
239 261 309 208 217 215 217 232 230 252 247 264 262 247 257 266 272 277 276 273 274 277 278 281 281 278 272 269 266 260 256 255 254 250 246 245 243 241 241 241 240 238 236 234
257 251 222 244 252 235 226 233 240 247 258 266 268 277 260 264 270 269 269 272 277 281 280 278 275 278 279 273 267 260 256 255 251 247 245 243 243 242 240 238 236 232 231 231
255 194 186 238 229 225 235 237 227 238 247 266 276 270 267 271 268 269 274 278 280 280 282 281 280 281 280 279 272 261 256 254 251 247 244 241 240 238 237 235 232 231 230 229
246 140 244 258 213 216 225 235 235 248 262 255 262 276 288 290 279 277 279 281 283 283 285 286 288 286 283 278 275 268 258 254 250 247 244 241 239 237 235 233 232 230 228 226
228 203 329 295 252 190 179 249 246 240 248 263 274 291 290 286 291 292 292 290 289 286 285 287 289 291 288 281 275 268 261 256 251 247 243 239 237 235 232 231 229 227 226 225
134 262 205 248 186 136 113 268 244 212 241 251 267 278 279 298 303 315 304 299 302 302 300 299 298 293 287 284 276 269 262 256 249 243 240 239 238 235 233 230 228 225 221 219
240 244 263 262 158 150 133 259 64 172 240 264 218 260 290 305 315 316 308 312 314 309 304 305 306 305 299 288 279 276 266 258 252 245 242 241 238 235 232 229 224 221 219 218
220 226 256 140 116 170 242 337 326 317 223 299 309 303 303 308 308 307 306 311 310 306 305 305 302 298 295 290 284 274 267 261 254 244 238 236 236 236 230 226 223 221 216 217
188 215 316 217 232 208 288 289 298 305 306 307 301 298 302 300 301 301 302 305 307 307 304 306 307 300 292 288 283 277 269 264 252 242 237 237 235 233 231 227 224 219 219 213
27 228 237 266 272 272 285 293 302 303 306 307 299 300 299 299 300 300 302 304 305 303 301 299 298 297 294 285 280 275 266 256 245 236 234 232 233 232 232 228 224 222 215 217
262 275 294 274 277 291 299 302 303 306 301 295 298 300 297 296 298 299 298 299 298 299 299 297 296 293 289 285 277 268 259 249 239 232 231 231 229 230 229 229 230 231 228 224
249 213 252 281 299 304 306 306 305 302 296 295 299 297 296 296 298 298 298 297 296 298 297 295 291 289 286 279 268 259 250 241 235 233 228 226 226 225 228 230 231 227 233 231
249 271 286 297 301 301 301 301 299 300 300 300 298 297 297 297 298 297 297 298 297 296 296 294 292 288 284 276 264 255 247 240 237 235 233 228 222 220 217 209 216 217 211 214
276 285 287 287 293 296 298 299 298 298 299 297 296 295 295 297 299 301 302 301 299 298 296 293 290 285 275 266 261 258 254 249 242 237 237 229 223 217 211 208 200 194 206 212
275 276 281 287 289 294 299 304 306 310 309 309 307 308 308 309 309 311 311 310 308 305 302 298 293 286 278 266 256 250 247 241 234 226 223 219 213 206 201 198 197 196 196 198
284 287 288 288 291 293 296 301 307 315 315 316 317 318 317 317 317 317 319 319 316 312 310 305 299 292 278 266 253 244 238 234 230 219 213 210 206 202 200 202 204 208 212 211
280 288 286 288 295 294 297 303 311 313 315 315 315 315 315 318 319 320 322 320 316 315 314 311 306 296 280 267 256 244 235 227 216 208 205 204 203 201 202 205 209 214 221 228
271 277 280 286 291 291 296 305 309 312 314 312 312 313 312 315 318 321 321 321 321 322 323 318 310 297 272 245 231 225 221 215 209 206 203 200 201 203 206 211 220 223 225 229
282 283 288 287 284 289 300 306 309 308 306 307 309 308 308 307 306 306 308 312 315 317 317 315 309 300 285 265 245 227 217 214 213 212 210 209 213 218 221 222 225 229 232 232
281 292 295 288 289 294 298 302 308 310 307 307 304 301 300 298 297 298 298 302 301 297 293 289 285 271 253 246 241 230 222 219 222 226 227 226 225 226 230 234 236 238 239 242
276 284 287 284 284 288 292 299 304 307 305 305 305 303 303 303 301 299 300 299 293 282 276 275 268 254 248 245 243 243 240 238 237 238 237 239 241 242 242 242 242 244 246 247
273 282 283 278 279 284 287 293 297 300 302 305 306 306 303 305 298 293 292 292 287 278 270 265 260 256 250 247 245 245 245 244 243 243 243 243 243 245 247 248 249 250 252 253
268 274 277 278 279 286 288 292 296 303 305 303 305 307 306 304 304 302 302 286 280 270 263 259 253 253 254 254 252 249 249 249 252 253 252 252 251 250 251 253 253 253 255 256
262 268 271 274 279 281 286 287 297 301 303 306 309 307 306 305 301 298 295 286 278 269 260 253 255 257 259 259 256 254 252 252 253 252 251 253 255 257 258 258 259 259 261 263
264 265 269 273 276 284 282 287 296 305 305 310 311 306 304 300 298 298 292 288 282 270 262 259 261 263 262 260 259 257 255 255 255 254 256 259 262 265 266 268 269 269 269 269
265 271 272 277 284 286 287 289 293 301 302 298 299 300 298 297 296 293 288 282 277 274 270 268 268 269 270 266 265 264 264 264 265 266 268 268 269 271 273 273 273 273 272 270
268 269 269 272 280 277 284 291 297 299 294 295 298 302 297 294 293 293 290 283 277 272 269 269 270 271 272 273 272 272 272 271 270 270 269 268 270 272 273 273 273 272 273 273